Alexandria, Egypt

10:56 AM EET on January 19, 2017 (GMT +0200)
Alexandria International

Weather History for HEAX - November, 2013

Change the Weather History Date:

Tuesday, November 19, 2013

  Actual Average Record
Temperature  
Mean Temperature 64 °F -  
Max Temperature 74 °F 68 °F 82 °F (1999)
Min Temperature 54 °F 52 °F 51 °F (2001)
Degree Days  
Heating Degree Days 1    
Growing Degree Days 14 (Base 50)    
Moisture  
Dew Point 58 °F    
Average Humidity 79    
Maximum Humidity 100    
Minimum Humidity 51    
Precipitation  
Precipitation 0.00 in 0.06 in - ()
Sea Level Pressure  
Sea Level Pressure 30.02 in    
Wind  
Wind Speed 2 mph ()    
Max Wind Speed 8 mph    
Max Gust Speed -    
Visibility 4.8 miles    
Events      
Averages and records for this station are not official NWS values.
T = Trace of Precipitation, MM = Missing Value Source: Averaged Metar Reports

Daily Weather History Graph

Daily Weather History Graph

Search for Another Location

Airport or City:

Trip Planner

Search our weather history database for the weather conditions in past years. The results will help you decide how hot, cold, wet, or windy it might be!

Date:

Astronomy

Nov. 19, 2013 Rise Set
Actual Time 6:30 AM EET 5:00 PM EET
Civil Twilight 6:04 AM EET 5:25 PM EET
Nautical Twilight 5:35 AM EET 5:55 PM EET
Astronomical Twilight 5:06 AM EET 6:24 PM EET
Moon 6:35 PM EET 7:52 AM EET
Length of Visible Light 11h 21m
Length of Day
10h 29m
Full, 97% of the Moon is Illuminated
Nov 19
Full
Nov 25
Last Quarter
Dec 3
New
Dec 9
First Quarter
Dec 17
Full

Hourly Weather History & Observations

Time (EET) Temp. Dew Point Humidity Pressure Visibility Wind Dir Wind Speed Gust Speed Precip Events Conditions
12:00 AM 64.4 °F 57.2 °F 77% 29.98 in 6.2 mi NE 2.3 mph - N/A   Partly Cloudy
1:00 AM 62.6 °F 57.2 °F 82% 29.98 in - NE 1.2 mph - N/A   Clear
2:00 AM 57 °F 55 °F 92% 29.99 in 4 mi Calm Calm - -   Mist
2:00 AM 57.2 °F 55.4 °F 94% 29.98 in 3.7 mi Calm Calm - N/A   Unknown
3:00 AM 57.2 °F 57.2 °F 100% 29.98 in 3.7 mi Calm Calm - N/A   Unknown
4:00 AM 55.4 °F 53.6 °F 94% 29.98 in 3.7 mi Calm Calm - N/A   Unknown
5:00 AM 55 °F 54 °F 97% 29.98 in 2 mi West 2.3 mph - -   Mist
5:00 AM 55.4 °F 53.6 °F 94% 29.98 in 1.9 mi West 2.3 mph - N/A   Mist
6:00 AM 57.2 °F 57.2 °F 100% 29.98 in 1.9 mi Calm Calm - N/A   Mist
7:00 AM 55.4 °F 55.4 °F 100% 29.98 in 0.7 mi Calm Calm - N/A   Mist
8:00 AM 61 °F 61 °F 100% 30.03 in 2 mi Calm Calm - -   Mist
8:00 AM 60.8 °F 60.8 °F 100% 30.01 in 1.9 mi Calm Calm - N/A   Partly Cloudy
9:00 AM 68.0 °F 60.8 °F 78% 30.04 in 3.7 mi WSW 2.3 mph - N/A   Partly Cloudy
10:00 AM 69.8 °F 60.8 °F 73% 30.04 in 6.2 mi WSW 1.2 mph - N/A   Scattered Clouds
11:00 AM 74 °F 60 °F 53% 30.04 in 6 mi East 2.3 mph - -   Partly Cloudy
11:00 AM 73.4 °F 60.8 °F 65% 30.04 in 6.2 mi East 2.3 mph - N/A   Scattered Clouds
12:00 PM 73.4 °F 59.0 °F 61% 30.01 in 6.2 mi NE 4.6 mph - N/A   Scattered Clouds
1:00 PM 73.4 °F 59.0 °F 61% 30.01 in 6.2 mi NNW 5.8 mph - N/A   Scattered Clouds
2:00 PM 72 °F 58 °F 51% 30.00 in 6 mi NNW 6.9 mph - -   Partly Cloudy
2:00 PM 71.6 °F 57.2 °F 60% 30.01 in 6.2 mi NNW 6.9 mph - N/A   Scattered Clouds
3:00 PM 73.4 °F 59.0 °F 61% 30.01 in 6.2 mi North 8.1 mph - N/A   Scattered Clouds
4:00 PM 71.6 °F 59.0 °F 64% 30.01 in 6.2 mi NNW 6.9 mph - N/A   Scattered Clouds
5:00 PM 70 °F 59 °F 60% 30.02 in 6 mi North 5.8 mph - -   Partly Cloudy
5:00 PM 69.8 °F 59.0 °F 68% 30.01 in 6.2 mi North 5.8 mph - N/A   Scattered Clouds
6:00 PM 68.0 °F 59.0 °F 73% 30.04 in 6.2 mi North 3.5 mph - N/A   Scattered Clouds
7:00 PM 66.2 °F 59.0 °F 78% 30.06 in 6.2 mi North 2.3 mph - N/A   Scattered Clouds
8:00 PM 65 °F 59 °F 74% 30.06 in 6 mi NNE 2.3 mph - -  
8:00 PM 66.2 °F 59.0 °F 78% 30.06 in 6.2 mi NNE 2.3 mph - N/A   Scattered Clouds
9:00 PM 66.2 °F 59.0 °F 78% 30.06 in - ENE 2.3 mph - N/A   Clear
10:00 PM 62.6 °F 57.2 °F 82% 30.06 in - NE 2.3 mph - N/A   Clear
11:00 PM 61 °F 58 °F 85% 30.07 in 6 mi NE 2.3 mph - -  
11:00 PM 60.8 °F 57.2 °F 88% 30.06 in - NE 2.3 mph - N/A   Clear